Weather in Kizel

Russia / Perm Krai     59°02′57″N   57°39′13″E
temp.,
°C
wind,
m/s
gust,
m/s
humid.,
%
clouds,
%
prec.,
mm/h
press.,
hPa
HPBL,
m
26 january, tue
tue2623:00+1sw51198100 3.7 1022493
02:00−2sw51297100 2.1 1022488
05:00−1sw41198100 3.3 1023433
08:00−2sw41097100 0.6 1023438
11:00−3sw51196100 1.3 1023519
14:00−4sw4995100 0.4 1023479
17:00−5sw41094100 0.6 1023627
20:00−5wsw41095100 0.3 1024668
27 january, wed
wed2723:00−5wsw3996100 0.6 1023526
02:00−6sw31196100 0.3 1024451
05:00−6sw3997100 0.7 1024348
08:00−7sw3996100 0.3 1024327
11:00−7ssw3895100 0.6 1024441
14:00−5sw4893100 0.3 1024629
17:00−6s3995100 0.5 1023391
20:00−5ssw51095100 0.1 1022618
28 january, thu
thu2823:00−4ssw51193100 0.3 1019753
02:00−4ssw51293100 0.1 1018734
05:00−6ssw61392100 0.2 1017636
08:00−6sw61492100 0.1 1015705
11:00−5sw61495100 1.1 1015755
14:00−4sw61395100 2.6 1014726
17:00−4wsw51196100 5.3 1015702
20:00−4wsw4995100 1.6 1017506
29 january, fri
fri2923:00−6wsw2797100 1.8 1018282
02:00−7ssw2397100 0.3 102093
05:00−9ssw1297100 0.4 102123
08:00−9se1197100 0.1 102122
11:00−9ese1196100 0.2 102249
14:00−6se2494100 0.0 1023271
17:00−7ese4992100 0.2 1023387
20:00−16e41291100 0.0 1024279
30 january, sat
sat3023:00−20ese71693100 0.0 1025335
02:00−21ese91895100 0.0 1024384
05:00−23ese81896100 0.1 1023410
08:00−25ese71795100 0.0 1023364
11:00−25ese71697100 0.1 1024359
14:00−22ese41396100 0.2 1023346
17:00−23ese41196100 0.4 1023278
20:00−25ese3895100 0.1 1024256